Boothville, LA

7:57 AM CDT on March 27, 2017 (GMT -0500)
Boothville

Weather History for KBVE - September, 2013

Change the Weather History Date:

Thursday, September 26, 2013

  Actual Average (KAXO) Record (KAXO)
Temperature  
Mean Temperature 80 °F -  
Max Temperature 86 °F 78 °F 87 °F (2007)
Min Temperature 75 °F 75 °F 62 °F (2000)
Cooling Degree Days 14    
Growing Degree Days 30 (Base 50)    
Moisture  
Dew Point 69 °F    
Average Humidity 71    
Maximum Humidity 94    
Minimum Humidity 46    
Precipitation  
Precipitation 0.00 in - - ()
Sea Level Pressure  
Sea Level Pressure 29.89 in    
Wind  
Wind Speed 3 mph (NW)    
Max Wind Speed 7 mph    
Max Gust Speed -    
Visibility 9 miles    
Events      
Averages and records for this station are not official NWS values.
T = Trace of Precipitation, MM = Missing Value Source: NWS Daily Summary

Daily Weather History Graph

Daily Weather History Graph

Search for Another Location

Airport or City:

Trip Planner

Search our weather history database for the weather conditions in past years. The results will help you decide how hot, cold, wet, or windy it might be!

Date:

Astronomy

Sep. 26, 2013 Rise Set
Actual Time 6:48 AM CDT 6:48 PM CDT
Civil Twilight 6:24 AM CDT 7:12 PM CDT
Nautical Twilight 5:56 AM CDT 7:40 PM CDT
Astronomical Twilight 5:29 AM CDT 8:07 PM CDT
Moon No Moon Rise 1:17 PM CDT (9/26)
Length of Visible Light 12h 48m
Length of Day
12h 00m
Waning Gibbous, 54% of the Moon is Illuminated
Sep 26
Waning Gibbous
Sep 26
Last Quarter
Oct 4
New
Oct 11
First Quarter
Oct 18
Full

Hourly Weather History & Observations

Time (CDT) Temp. Heat Index Dew Point Humidity Pressure Visibility Wind Dir Wind Speed Gust Speed Precip Events Conditions
12:51 AM 77.0 °F - 71.1 °F 82% 29.82 in 9.0 mi ESE 3.5 mph - N/A   Clear
1:51 AM 77.0 °F - 73.0 °F 88% 29.83 in 8.0 mi SSE 4.6 mph - N/A   Clear
2:51 AM 77.0 °F - 73.0 °F 88% 29.83 in 9.0 mi Calm Calm - N/A   Clear
3:51 AM 75.9 °F - 73.0 °F 91% 29.83 in 9.0 mi Calm Calm - N/A   Clear
4:51 AM 75.9 °F - 72.0 °F 87% 29.84 in 10.0 mi Calm Calm - N/A   Clear
5:51 AM 77.0 °F - 73.9 °F 90% 29.85 in 8.0 mi NW 3.5 mph - N/A   Clear
6:51 AM 75.9 °F - 73.9 °F 94% 29.87 in 4.0 mi WNW 3.5 mph - N/A   Clear
7:49 AM 77.0 °F - 73.9 °F 90% 29.89 in 2.5 mi Calm Calm - N/A   Partly Cloudy
8:02 AM 78.8 °F - 73.4 °F 83% 29.89 in 3.0 mi WNW 3.5 mph - N/A   Scattered Clouds
8:51 AM 81.0 °F 85.8 °F 73.0 °F 77% 29.91 in 10.0 mi NNW 4.6 mph - N/A   Clear
9:51 AM 82.9 °F 87.5 °F 71.1 °F 67% 29.92 in 10.0 mi NW 4.6 mph - N/A   Clear
10:51 AM 84.0 °F 87.8 °F 69.1 °F 61% 29.94 in 9.0 mi NW 5.8 mph - N/A   Clear
11:51 AM 84.0 °F 88.4 °F 70.0 °F 63% 29.94 in 10.0 mi Variable 4.6 mph - N/A   Clear
12:51 PM 84.0 °F 88.4 °F 70.0 °F 63% 29.92 in 10.0 mi Variable 4.6 mph - N/A   Clear
1:51 PM 84.9 °F 87.6 °F 66.9 °F 55% 29.90 in 10.0 mi Variable 4.6 mph - N/A   Clear
2:51 PM 84.9 °F 86.1 °F 64.0 °F 49% 29.89 in 8.0 mi Variable 3.5 mph - N/A   Partly Cloudy
3:51 PM 84.9 °F 86.1 °F 64.0 °F 49% 29.88 in 10.0 mi NNW 5.8 mph - N/A   Clear
4:51 PM 84.9 °F 85.4 °F 62.1 °F 46% 29.88 in 10.0 mi NNW 6.9 mph - N/A   Clear
5:51 PM 84.0 °F 84.4 °F 61.0 °F 46% 29.89 in 10.0 mi Variable 4.6 mph - N/A   Clear
6:51 PM 82.0 °F 83.4 °F 64.0 °F 54% 29.90 in 10.0 mi Calm Calm - N/A   Clear
7:51 PM 79.0 °F - 66.0 °F 64% 29.91 in 10.0 mi Calm Calm - N/A   Clear
8:51 PM 78.1 °F - 69.1 °F 74% 29.93 in 10.0 mi SE 3.5 mph - N/A   Clear
9:51 PM 77.0 °F - 68.0 °F 74% 29.94 in 10.0 mi SE 3.5 mph - N/A   Clear
10:51 PM 77.0 °F - 66.9 °F 71% 29.94 in 10.0 mi SE 3.5 mph - N/A   Clear
11:51 PM 77.0 °F - 68.0 °F 74% 29.94 in 10.0 mi SE 3.5 mph - N/A   Clear